Location: Chandolas
(44.4033°N, 4.2533°E)
Time: 17:09:13
(UTC+00:00)

Cosmos 1980 Rocket - Pass Details

Date: 15 November 2019
Orbit: 827 x 851 km, 71.0° (Epoch: 05 December)

Event Time Altitude Azimuth Distance (km) Brightness Sun altitude
Exits shadow 03:48:20 46° 17° (NNE) 1,139 2.9 -30.3°
Maximum altitude 03:49:36 55° 60° (ENE) 1,016 2.8 -30.1°
Drops below altitude 10° 03:55:10 10° 138° (SE) 2,467 5.1 -29.1°
Sets 03:57:39 0° 143° (SE) 3,395 5.8 -28.7°
